Regional Weather Roundup
Issued by NWS

Home | Current Version | Previous Version | Graphics & Text | Print | Product List | Glossary On
Versions: 1 2 3 4 5 6 7 8 9 10 11 12 13 14 15 16 17 18 19 20 21 22 23 24 25 26 27 28 29 30 31 32 33 34 35 36 37 38 39 40 41 42 43 44 45 46 47 48 49 50
702
ASUS44 KJAN 302103
RWRMS

MISSISSIPPI HOURLY WEATHER ROUNDUP
NATIONAL WEATHER SERVICE JACKSON MS
400 PM CDT WED JUL 30 2014

NOTE: "FAIR: INDICATES FEW OR NO CLOUDS BELOW 12,000 FEET WITH NO
SIGNIFICANT WEATHER AND/OR OBSTRUCTIONS TO VISIBILITY.

MSZ001>002-007>008-010>013-018>021-025>028-034>036-302200-
NORTHWEST MISSISSIPPI

CITY           SKY/WX    TMP DP  RH WIND       PRES   REMARKS
CLARKSDALE     FAIR      81  59  47 CALM      30.09S
CLEVELAND      FAIR      81  65  59 NW5       30.07S
GREENWOOD      SUNNY     82  60  47 N3        30.07F
GREENVILLE     MOSUNNY   82  63  52 N5        30.07F
GRENADA        FAIR      81  55  41 E5        30.07F
OLIVE BRANCH   PTSUNNY   81  59  47 E5        30.09F
OXFORD         FAIR      81  57  44 N6        30.10
TUNICA         PTCLDY    81  54  39 CALM      30.09S
$$

MSZ003>006-009-014>017-022>024-029>033-037>039-302200-
NORTHEAST MISSISSIPPI

CITY           SKY/WX    TMP DP  RH WIND       PRES   REMARKS
BELMONT        FAIR      79  59  50 CALM      30.08F
COLUMBUS AFB   MOSUNNY   83  57  41 VRB7      30.06F
CORINTH        FAIR      81  57  44 N7        30.08F
GOLDN TRIANGLE MOSUNNY   84  57  39 N9        30.07F
STARKVILLE     FAIR      81  55  41 NW5       30.07S
TUPELO         SUNNY     82  55  39 NE6       30.07F
$$

MSZ040-058-302200-
CENTRAL MISSISSIPPI

CITY           SKY/WX    TMP DP  RH WIND       PRES   REMARKS
JACKSON INTL   MOSUNNY   85  57  38 N7        30.05F
JACKSON HAWKNS SUNNY     85  56  37 CALM      30.06F
MERIDIAN KEY   SUNNY     85  52  32 NW9G17    30.04F
MERIDIAN NAS   SUNNY     85  54  34 N8        30.04F
RAYMOND        FAIR      84  77  79 N5        30.06S HX  94
VICKSBURG      MOSUNNY   86  58  38 NE7       30.05F
$$

MSZ059>079-302200-
SOUTH MISSISSIPPI

CITY           SKY/WX    TMP DP  RH WIND       PRES   REMARKS
BROOKHAVEN     FAIR      82  61  47 NE6       30.06F
COLUMBIA       FAIR      84  59  42 NE7G14    30.02S
HATTIESBURG    SUNNY     85  55  35 CALM      30.03F
MCCOMB         SUNNY     85  57  38 MISG      30.03F
NATCHEZ        SUNNY     82  63  51 NW9       30.05F
PINE BELT      SUNNY     86  55  35 NW9       30.05F
$$

MSZ080>082-302200-
COASTAL MISSISSIPPI

CITY           SKY/WX    TMP DP  RH WIND       PRES   REMARKS
BAY ST LOUIS   SUNNY    N/A N/A N/A NW5       30.01F
BILOXI         SUNNY     85  64  48 SW10      30.00F
PASCAGOULA     SUNNY     86  59  39 N7        30.00F
GULFPORT       SUNNY     90  56  31 NW6       29.99F
$$



USA.gov is the U.S. government's official web portal to all federal, state and local government web resources and services.